[[{"header":{"parameterUnit":"m.s-1","parameterCategory":1,"la1":30.2991,"la2":30.254,"lo1":-89.0895,"lo2":-89.0444,"dy":0.0017,"dx":0.0017,"nx":28,"ny":28,"refTime":"2023-10-01T03:00:00:Z","depth":0,"parameterNumber":2,"parameterNumberName":"U-component_of_WINDS"},"data":[0,0,0,0,0,0,0,0,0,0,0,0,0,0,0,0,0,0,0,0,0,0,0,0,0,0,0,0,0,0,0,0,0,0,0,0,0,0,0,0,0,0,0,0,0,0,0,0,0,0,0,0,0,0,0,0,0,0,-5.8344,-5.8345,0,-5.8349,-5.8349,-5.8349,-5.8256,-5.8253,-5.825,-5.8248,-5.8253,-5.8256,-5.8258,0,0,0,0,0,0,0,0,0,0,0,0,0,-5.8258,-5.826,-5.8344,-5.8345,-5.8345,-5.8349,-5.8349,-5.8349,-5.8256,-5.8253,-5.825,-5.8247,-5.8253,-5.8256,-5.8259,0,0,0,0,0,0,0,0,0,0,0,0,0,-5.8282,-5.8261,-5.8344,-5.8299,-5.8295,-5.8349,-5.8349,-5.8349,-5.8257,-5.8253,-5.8249,-5.8246,-5.8252,-5.8255,-5.8259,-5.8357,0,0,-5.827,-5.8272,0,0,0,0,0,0,0,0,-5.8281,-5.8286,-5.8305,-5.8302,-5.8297,-5.8298,-5.832,-5.8352,-5.8258,-5.8271,-5.8248,-5.8244,-5.8271,-5.8273,-5.8282,-5.8358,-5.8358,-5.8271,-5.8273,-5.8275,-5.8276,0,0,0,0,0,0,0,-5.828,-5.8285,-5.8346,-5.8306,-5.8301,-5.8279,-5.8278,-5.8326,-5.8292,-5.827,-5.8263,-5.8265,-5.8268,-5.8279,-5.8282,-5.8358,-5.8271,-5.8274,-5.8276,-5.8278,-5.8517,-5.8521,0,0,0,0,0,0,-5.8284,-5.8284,-5.8346,-5.8346,-5.828,-5.8283,-5.8282,-5.8301,-5.8291,-5.8286,-5.8268,-5.826,-5.8274,-5.8277,-5.8282,-5.8398,-5.8274,-5.8278,-5.828,-5.8513,-5.8518,-5.8522,0,0,0,0,0,0,-5.8282,-5.829,-5.8346,-5.8313,-5.8319,-5.8289,-5.8311,-5.8304,-5.8314,-5.829,-5.8284,-5.8285,-5.8272,-5.8276,-5.834,-5.8397,-5.828,-5.8283,-5.8508,-5.8514,-5.852,-5.863,0,0,0,0,0,0,-5.828,-5.829,-5.8327,-5.8315,-5.8321,-5.8404,-5.8314,-5.8306,-5.832,-5.8311,-5.8304,-5.8299,-5.8269,-5.8335,-5.8343,-5.84,-5.8286,-5.8503,-5.8511,-5.8518,-5.8622,-5.864,-5.8655,0,0,0,0,0,-5.8278,-5.8357,-5.8329,-5.8337,-5.8366,-5.8407,-5.841,-5.8373,-5.8325,-5.8362,-5.8347,-5.83,-5.8389,-5.8342,-5.8351,-5.8409,-5.8499,-5.8509,-5.8518,-5.8614,-5.8636,-5.8655,0,0,0,0,0,0,-5.8376,-5.8355,-5.8323,-5.8401,-5.8407,-5.8391,-5.8436,-5.8397,-5.8417,-5.8407,-5.836,-5.836,-5.8431,-5.8426,-5.8374,-5.8505,-5.8436,-5.8447,-5.8506,-5.8527,-5.8543,-5.8543,-5.8289,0,0,0,0,0,-5.8407,-5.8441,-5.8421,-5.8492,-5.8496,-5.8466,-5.8483,-5.8454,-5.8458,-5.846,-5.8449,-5.8455,-5.8485,-5.8505,-5.8531,-5.862,-5.8619,-5.8665,-5.8682,-5.8696,-5.8707,-5.8756,-5.8777,-5.8553,-5.8553,-5.8553,0,0,-5.847,-5.8463,-5.8488,-5.8512,-5.8512,-5.8551,-5.8469,-5.8512,-5.854,-5.8466,-5.8526,-5.8519,-5.8523,-5.8601,-5.8634,-5.8599,-5.8768,-5.8708,-5.8719,-5.8722,-5.8768,-5.8789,-5.8808,-5.8559,-5.8558,-5.8557,0,0,-5.8606,-5.8604,-5.8664,-5.8667,-5.8669,-5.8649,-5.8664,-5.8655,-5.8647,-5.8707,-5.8653,-5.8686,-5.8737,-5.8743,-5.8753,-5.8895,-5.8852,-5.8904,-5.8992,-5.9041,-5.9058,-5.9074,-5.9126,-5.9145,-5.8915,-5.8915,-5.8915,0,-5.8685,-5.874,-5.8699,-5.8747,-5.876,-5.8695,-5.8757,-5.8762,-5.8773,-5.8784,-5.8744,-5.8809,-5.8807,-5.8886,-5.8921,-5.893,-5.8947,-5.8905,-5.9059,-5.9074,-5.9088,-5.9138,-5.9157,-5.8922,-5.8921,-5.892,-5.892,0,-5.8838,-5.8878,-5.8926,-5.8939,-5.8957,-5.9011,-5.898,-5.9004,-5.8974,-5.8959,-5.9021,-5.9017,-5.9042,-5.9058,-5.9029,-5.9135,-5.9113,-5.9067,-5.8996,-5.9117,-5.9163,-5.9181,-5.8931,-5.8928,-5.8927,-5.8925,0,0,-5.9035,-5.9027,-5.9045,-5.9052,-5.9051,-5.9081,-5.9133,-5.9158,-5.918,-5.919,-5.9234,-5.9281,-5.9239,-5.925,-5.9222,-5.9264,-5.938,-5.9213,-5.9213,-5.9246,-5.9498,-5.9534,-5.9556,-5.9352,-5.9355,-5.9358,-5.9498,0,-5.9169,-5.9257,-5.9223,-5.9315,-5.9352,-5.9292,-5.9338,-5.9344,-5.9331,-5.9362,-5.9348,-5.9382,-5.9323,-5.933,-5.937,-5.9357,-5.943,-5.9346,-5.9393,-5.9396,-5.9395,-5.958,-5.9617,-5.975,-5.9516,-5.9519,-5.9521,0,-5.9336,-5.9354,-5.945,-5.9445,-5.946,-5.9501,-5.9523,-5.9552,-5.9558,-5.9546,-5.956,-5.9523,-5.9575,-5.9505,-5.9578,-5.9522,-5.9539,-5.9537,-5.9541,-5.9545,-5.9466,-5.959,-5.9791,-5.9812,-5.9548,-5.9546,-5.9544,0,-5.9472,-5.9521,-5.9585,-5.9592,-5.9587,-5.9619,-5.9619,-5.9621,-5.9639,-5.9657,-5.9669,-5.9694,-5.9708,-5.9729,-5.97,-5.9651,-5.9778,-5.9704,-5.9771,-5.9773,-5.9801,-5.98,-6.0009,-5.9811,-5.9811,-5.981,-5.981,0,-5.9625,-5.9687,-5.9646,-5.9686,-5.9754,-5.9715,-5.9783,-5.9776,-5.9779,-5.9817,-5.9767,-5.9805,-5.9764,-5.9798,-5.9776,-5.9841,-5.9847,-5.9841,-5.9834,-5.9846,-5.9847,-5.9857,-5.9848,-5.9815,-5.9814,-5.9813,-5.9812,0,-5.9789,-5.9764,-5.983,-5.9822,-5.9821,-5.9872,-5.9865,-5.9902,-5.9886,-5.9936,-5.9945,-5.9922,-5.996,-5.9933,-5.997,-5.9956,-6.0042,-6.0022,-6.004,-6.0035,-6.0104,-6.0099,-6.0329,-6.0358,-6.0139,-6.0141,-6.0143,0,-5.9889,-5.9935,-5.9932,-5.9954,-5.9957,-5.9993,-6.0012,-5.9976,-5.9997,-6.0009,-6.0045,-6.0079,-6.0104,-6.0167,-6.0154,-6.0183,-6.0164,-6.0243,-6.0168,-6.018,-6.0168,-6.0166,-6.0171,-6.0258,-6.0261,-6.0263,-6.0265,0,-6.0069,-6.0056,-6.0084,-6.0109,-6.0133,-6.0151,-6.0165,-6.0186,-6.015,-6.0177,-6.0215,-6.0235,-6.0274,-6.0308,-6.0333,-6.0334,-6.0295,-6.0288,-6.0306,-6.0318,-6.0328,-6.0326,-6.0083,-6.0283,-6.0281,-6.028,-6.0279,-6.0278,-6.0205,-6.0244,-6.0249,-6.0283,-6.029,-6.0305,-6.034,-6.033,-6.0361,-6.039,-6.0367,-6.0414,-6.0421,-6.045,-6.0456,-6.0493,-6.0461,-6.0485,-6.0492,-6.0499,-6.0509,-6.0321,-6.0497,-6.0496,-6.0496,-6.0495,-6.0495,0,-6.0384,-6.0385,-6.0417,-6.0439,-6.0466,-6.0427,-6.0441,-6.0467,-6.0508,-6.0518,-6.0544,-6.0589,-6.0624,-6.0614,-6.0645,-6.0677,-6.066,-6.0686,-6.0684,-6.0685,-6.0535,-6.0518,-6.07,-6.07,-6.0699,-6.0699,-6.0699,-6.0699,-6.0481,-6.0546,-6.0533,-6.0602,-6.0602,-6.0647,-6.0659,-6.0673,-6.0681,-6.0734,-6.0762,-6.0756,-6.0759,-6.079,-6.0821,-6.0817,-6.0832,-6.0865,-6.0856,-6.0716,-6.0695,-6.0676,-6.066,-6.0868,-6.0869,-6.1003,-6.1004,-6.1005]},{"header":{"parameterUnit":"m.s-1","parameterCategory":1,"la1":30.2991,"la2":30.254,"lo1":-89.0895,"lo2":-89.0444,"dy":0.0017,"dx":0.0017,"nx":28,"ny":28,"refTime":"2023-10-01T03:00:00:Z","depth":0,"parameterNumber":3,"parameterNumberName":"V-component_of_WINDS"},"data":[0,0,0,0,0,0,0,0,0,0,0,0,0,0,0,0,0,0,0,0,0,0,0,0,0,0,0,0,0,0,0,0,0,0,0,0,0,0,0,0,0,0,0,0,0,0,0,0,0,0,0,0,0,0,0,0,0,0,-1.1012,-1.1012,0,-1.1,-1.1,-1.1,-1.096,-1.0959,-1.0958,-1.0958,-1.0948,-1.0948,-1.0949,0,0,0,0,0,0,0,0,0,0,0,0,0,-1.1002,-1.1003,-1.1012,-1.1012,-1.1012,-1.1,-1.1,-1.1,-1.096,-1.0959,-1.0958,-1.0957,-1.0948,-1.0948,-1.0949,0,0,0,0,0,0,0,0,0,0,0,0,0,-1.1,-1.1003,-1.1012,-1.0991,-1.0988,-1.1,-1.1,-1.1,-1.0961,-1.0959,-1.0958,-1.0957,-1.0948,-1.0948,-1.0949,-1.0981,0,0,-1.0952,-1.0952,0,0,0,0,0,0,0,0,-1.1,-1.1001,-1.0994,-1.0992,-1.099,-1.098,-1.0993,-1.0994,-1.0961,-1.0971,-1.0958,-1.0956,-1.096,-1.096,-1.096,-1.0981,-1.098,-1.0952,-1.0952,-1.0953,-1.0953,0,0,0,0,0,0,0,-1.1001,-1.1001,-1.1007,-1.0994,-1.0991,-1.0982,-1.098,-1.0993,-1.0973,-1.097,-1.0967,-1.0966,-1.0959,-1.096,-1.096,-1.098,-1.0952,-1.0953,-1.0953,-1.0954,-1.1027,-1.1028,0,0,0,0,0,0,-1.1003,-1.1001,-1.1008,-1.1007,-1.0992,-1.0983,-1.0981,-1.0985,-1.0973,-1.097,-1.0968,-1.0965,-1.0959,-1.0959,-1.0959,-1.0997,-1.0953,-1.0954,-1.0954,-1.1026,-1.1027,-1.1029,0,0,0,0,0,0,-1.1003,-1.1004,-1.1008,-1.1003,-1.1003,-1.0985,-1.0989,-1.0985,-1.0986,-1.0971,-1.0967,-1.0972,-1.0958,-1.0958,-1.0976,-1.0996,-1.0954,-1.0955,-1.1024,-1.1026,-1.1028,-1.1073,0,0,0,0,0,0,-1.1003,-1.1005,-1.1016,-1.1004,-1.1003,-1.1025,-1.099,-1.0986,-1.0988,-1.0984,-1.0974,-1.0972,-1.0957,-1.0975,-1.0977,-1.0997,-1.0955,-1.1022,-1.1025,-1.1027,-1.107,-1.1076,-1.1082,0,0,0,0,0,-1.1003,-1.103,-1.1017,-1.1018,-1.1017,-1.1026,-1.1026,-1.1007,-1.0989,-1.1001,-1.0991,-1.0972,-1.0993,-1.0977,-1.0979,-1.1,-1.1021,-1.1024,-1.1027,-1.1067,-1.1075,-1.1082,0,0,0,0,0,0,-1.1046,-1.1028,-1.1014,-1.1037,-1.1033,-1.1019,-1.1034,-1.1017,-1.1019,-1.1015,-1.0993,-1.0991,-1.1013,-1.1007,-1.099,-1.103,-1.1004,-1.1008,-1.1033,-1.1041,-1.1047,-1.1049,-1.0956,0,0,0,0,0,-1.1058,-1.1066,-1.1049,-1.1071,-1.107,-1.1052,-1.1055,-1.1041,-1.1037,-1.1036,-1.1027,-1.1024,-1.103,-1.1035,-1.1039,-1.1068,-1.1066,-1.1083,-1.1089,-1.1094,-1.1098,-1.1114,-1.1122,-1.104,-1.104,-1.1039,0,0,-1.1084,-1.1074,-1.1081,-1.108,-1.1075,-1.1085,-1.1051,-1.1063,-1.107,-1.1037,-1.1054,-1.1047,-1.1043,-1.1066,-1.1076,-1.1063,-1.112,-1.1098,-1.1102,-1.1104,-1.1118,-1.1126,-1.1133,-1.1042,-1.1041,-1.1041,0,0,-1.1135,-1.1128,-1.1146,-1.1142,-1.1135,-1.1123,-1.1127,-1.1116,-1.111,-1.1126,-1.1102,-1.111,-1.1121,-1.1119,-1.1119,-1.1169,-1.1152,-1.1171,-1.1205,-1.122,-1.1227,-1.1232,-1.1252,-1.1259,-1.1174,-1.1175,-1.1175,0,-1.1168,-1.118,-1.1158,-1.1171,-1.1172,-1.1141,-1.116,-1.1157,-1.1153,-1.1155,-1.1139,-1.1152,-1.1146,-1.117,-1.1182,-1.1182,-1.1188,-1.1173,-1.1227,-1.1233,-1.1238,-1.1256,-1.1264,-1.1177,-1.1177,-1.1177,-1.1176,0,-1.1222,-1.1231,-1.1246,-1.1242,-1.1244,-1.126,-1.1241,-1.1246,-1.1231,-1.1221,-1.1238,-1.123,-1.1233,-1.1237,-1.1223,-1.1258,-1.125,-1.1231,-1.1205,-1.1249,-1.1266,-1.1272,-1.1181,-1.118,-1.1179,-1.1179,0,0,-1.1303,-1.1285,-1.1291,-1.1289,-1.1279,-1.1286,-1.13,-1.1302,-1.1307,-1.1304,-1.1317,-1.1326,-1.1309,-1.1309,-1.1294,-1.1308,-1.135,-1.1287,-1.1287,-1.1301,-1.139,-1.1406,-1.1415,-1.1337,-1.1338,-1.1339,-1.1391,0,-1.1353,-1.1376,-1.1356,-1.1384,-1.1393,-1.1363,-1.1376,-1.1371,-1.1362,-1.1368,-1.1357,-1.1365,-1.134,-1.134,-1.1352,-1.1342,-1.1368,-1.1337,-1.135,-1.1351,-1.1355,-1.1423,-1.144,-1.149,-1.1397,-1.1399,-1.1399,0,-1.1416,-1.1415,-1.1444,-1.1432,-1.1435,-1.1446,-1.1447,-1.1453,-1.1447,-1.1439,-1.1439,-1.142,-1.1435,-1.1406,-1.1426,-1.1407,-1.141,-1.1406,-1.1407,-1.141,-1.138,-1.143,-1.1505,-1.1514,-1.1409,-1.1408,-1.1408,0,-1.1474,-1.1481,-1.1499,-1.1498,-1.1484,-1.1493,-1.1487,-1.148,-1.1483,-1.1483,-1.1485,-1.1486,-1.1488,-1.1491,-1.1474,-1.1454,-1.1496,-1.1466,-1.1492,-1.1492,-1.1504,-1.1504,-1.1584,-1.1502,-1.1502,-1.1502,-1.1502,0,-1.1535,-1.1554,-1.1525,-1.1537,-1.1557,-1.1533,-1.1555,-1.1546,-1.154,-1.155,-1.1524,-1.1534,-1.1509,-1.1517,-1.1503,-1.1523,-1.1523,-1.1518,-1.1515,-1.1522,-1.1523,-1.1527,-1.1524,-1.1504,-1.1504,-1.1503,-1.1503,0,-1.1605,-1.1586,-1.1604,-1.1589,-1.1585,-1.1602,-1.1589,-1.1599,-1.1587,-1.16,-1.1601,-1.1583,-1.159,-1.1572,-1.1578,-1.1568,-1.1597,-1.1587,-1.1599,-1.1597,-1.1624,-1.1623,-1.1711,-1.1722,-1.1631,-1.1632,-1.1633,0,-1.1646,-1.166,-1.1646,-1.165,-1.1646,-1.1653,-1.1655,-1.1632,-1.1636,-1.163,-1.1641,-1.1646,-1.165,-1.1663,-1.1651,-1.1655,-1.1646,-1.1676,-1.1647,-1.1654,-1.1649,-1.165,-1.1652,-1.1684,-1.1685,-1.1686,-1.1686,0,-1.1721,-1.1711,-1.1715,-1.1716,-1.1719,-1.1719,-1.1716,-1.1722,-1.1697,-1.1702,-1.1709,-1.1711,-1.1716,-1.1722,-1.1723,-1.1718,-1.1699,-1.1695,-1.1702,-1.1711,-1.1718,-1.1717,-1.1619,-1.1694,-1.1693,-1.1693,-1.1692,-1.1692,-1.178,-1.1791,-1.1783,-1.1788,-1.1784,-1.1782,-1.1792,-1.178,-1.1785,-1.1787,-1.1772,-1.1783,-1.1777,-1.1776,-1.1773,-1.1781,-1.1768,-1.1777,-1.1779,-1.1783,-1.1788,-1.1714,-1.1781,-1.1781,-1.1781,-1.178,-1.178,0,-1.1856,-1.1849,-1.1854,-1.1851,-1.1856,-1.1835,-1.1831,-1.1837,-1.1846,-1.1841,-1.1844,-1.1853,-1.1858,-1.1846,-1.1849,-1.1859,-1.185,-1.1861,-1.1861,-1.1861,-1.1799,-1.1794,-1.1868,-1.1868,-1.1868,-1.1868,-1.1868,-1.1868,-1.1897,-1.1915,-1.1904,-1.192,-1.1913,-1.1922,-1.1922,-1.1921,-1.1917,-1.1928,-1.1932,-1.1923,-1.1915,-1.1918,-1.1923,-1.1919,-1.1923,-1.1937,-1.193,-1.1874,-1.1865,-1.1857,-1.1852,-1.1937,-1.1937,-1.1992,-1.1992,-1.1993]}]]